STARLINK-11598, 63113

Orbit data source: Space-Track

STARLINK-11598, 63113 is a payload satellite owned by SpaceX/Seattle (US) in LEO that was launched on Thu, 27 Feb 2025 UTC via an FALCON 9 launch vehicle from the Air Force Eastern Test Range (AFETR). Payload-class satellites include a variety of spacecraft equipped with specific instruments for various scientific and technological missions. These include communications satellites like Starlink; space stations such as the ISS; scientific satellites like the Hubble; Earth observation satellites from companies like Planet Labs, Umbra, and HawkEye 360; GPS; miniature CubeSats for education and research; and military/defense satellites.

Loading next visibility...
Identifier
63113, 2025-039K
Orbit
LEO
Country
Flag of USUS
Related business
Manufacturer
SpaceX/Seattle
Mission
Operational Commercial Communications
Bus & Motor
STARLINK V2MD, Unknown motor
Mass
960 kg wet, ~910 kg dry
Launch date (UTC)
2025-02-27 (8 months ago)
Launch vehicle
FALCON 9
Launch site
Air Force Eastern Test Range (AFETR)
Object type
Payload
Rocket body
Debris
Shape & HBR
Box + 2 Pan, 18.1 m
Radar Cross Section
36.964 m², Large (>1 m²)

Expand to show TLE details & history
Last TLE update: 10 hours ago

TLE from 10 hours ago
0 STARLINK-11598
1 63113U 25039K   25309.88637797  .00291851  00000-0  21799-2 0  9993
2 63113  42.9995 263.1574 0004095 292.2289  67.8144 15.71043987 40148
Epoch: 2025-11-05T21:16Z
TLE epoch observation values (Epoch: 2025-11-05T21:16:23.056Z)
Latitude
-0.00004°
Longitude
-101.29132°
Altitude
354.643 km
Speed
7.699 km/s
True Right ascension
17h 32m 37s
True Declination
0° 00' 00"
Sunlit
Object was in daylight at epoch
Visualization orbit readout
Latitude
Unknown
Longitude
Unknown
Altitude
Unknown
Speed
Unknown
Apparent Right ascension
Unknown
Apparent Declination
Unknown
Sunlit
N/A
Visualization observer readout
Local Sidereal Time
03:21:40
Azimuth
Unknown
Elevation
Unknown
Doppler factor
Unknown
Orbital elements
Apogee altitude
360.652 km
Perigee altitude
355.136 km
Semi-major axis
6,736.031 km
Eccentricity
0.00041
Inclination
42.9995°
RAAN
263.1574°
Arg. of periapsis
292.2289°
True anomaly
67.85786°
Mean anomaly
67.8144°
Eccentric anomaly
67.83613°
Mean motion
3.92588 °/min
Orbital period
91.7 mins
BSTAR
0.0021799
Loading maneuver chart data...
Computing Atmospheric mass density...
Loading historical data...
Loading historical data...
Loading historical data...
Loading historical data...
Loading historical data...
Loading historical data...
Loading historical data...

Documentation

Showing up to 5 results
|